Wind_Speed
30 33 35 37 41 44 45 47 42 43 48 49 50 44 44 49 46 49 50 52 54 53 54 56 57 60 61 62 65 65 65 66 64 67 71 72 74 76
33 35 42 45 46 44 52 47 51 48 50 48 47 47 52 51 50 51 54 55 57 57 58 59 61 61 66 65 68 68 68 66 69 72 74 74 76 78
37 43 39 45 40 41 49 52 46 44 47 47 48 47 56 55 59 60 59 58 60 60 61 62 63 64 65 67 68 67 68 71 74 76 75 77 77 78
36 40 46 36 34 33 43 39 39 44 52 51 56 58 59 61 64 63 63 61 62 64 65 66 67 68 69 71 71 71 73 76 79 79 79 79 79 79
35 27 31 32 35 35 38 41 44 48 50 54 57 60 64 65 67 67 66 66 66 66 68 69 71 72 73 74 74 76 79 81 82 82 80 80 79 79
30 30 33 36 37 39 40 43 45 47 52 56 58 56 67 67 66 68 68 68 68 70 71 71 73 74 75 74 78 82 83 82 83 82 80 79 79 80
32 34 37 40 41 42 45 48 50 50 55 63 63 64 67 68 67 68 68 70 72 71 71 71 71 73 77 81 85 84 82 83 83 81 80 79 79 81
39 40 43 44 45 48 49 52 55 57 60 64 66 67 68 68 69 69 70 72 71 71 73 75 77 80 84 85 85 84 84 85 83 81 81 81 82 83
45 46 47 48 50 52 54 57 59 61 64 65 66 67 68 69 71 71 72 75 77 76 79 81 84 84 86 87 87 86 86 84 83 82 83 83 83 84
48 49 51 53 54 56 59 61 63 64 65 65 65 66 66 69 71 74 79 83 85 87 88 86 87 87 88 89 87 85 85 85 85 85 84 83 84 81
50 52 53 55 56 59 61 63 64 64 66 67 69 71 72 75 78 80 85 86 84 86 88 89 90 90 86 84 84 85 85 86 87 86 84 85 81 72
50 52 53 55 56 59 62 65 67 69 70 73 76 78 78 78 82 89 87 87 89 89 92 90 88 89 84 84 85 87 89 89 88 87 87 80 71 63
54 55 56 58 61 64 66 68 72 73 75 76 79 81 83 88 88 87 90 90 90 91 91 91 89 90 91 89 87 88 88 88 88 87 77 66 59 56
55 57 57 58 62 65 68 69 73 77 80 84 85 83 84 86 88 89 91 92 93 93 92 94 93 92 93 91 88 85 87 88 82 73 63 58 54 47
58 61 64 67 71 72 72 74 78 80 81 82 83 85 86 88 91 93 93 95 96 96 96 95 95 93 93 91 90 89 82 74 69 61 57 52 44 39
65 64 70 74 74 74 76 77 78 79 81 84 86 89 91 94 95 97 99 100 100 100 100 99 99 99 96 92 88 78 70 64 60 55 50 42 37 28
74 71 71 73 76 77 76 78 81 83 85 88 91 94 97 99 102 103 104 104 104 103 102 101 99 94 88 82 75 68 62 59 52 46 40 33 29 28
71 74 77 77 76 77 78 80 84 87 90 93 97 100 102 104 106 107 108 108 107 105 103 99 93 88 82 76 72 63 57 49 43 37 30 27 26 25
73 75 76 78 78 79 83 87 90 93 96 100 103 106 108 110 111 110 110 109 104 99 94 90 87 84 78 70 61 57 46 39 34 29 25 27 25 26
75 75 75 77 82 86 89 92 96 100 103 106 109 110 111 111 110 108 104 100 97 93 89 84 80 76 70 60 50 44 35 30 26 25 25 30 27 27
73 74 80 84 88 91 95 98 102 105 108 110 111 110 108 105 101 99 96 93 89 85 80 76 71 66 60 51 40 33 28 27 30 28 27 26 27 25
77 83 87 90 93 97 101 105 108 109 109 107 104 101 99 96 93 90 85 80 75 70 64 58 53 48 43 35 27 26 30 32 31 29 26 23 26 28
85 88 92 96 100 103 106 106 105 103 100 98 96 93 90 85 79 71 65 59 54 48 43 38 35 31 27 22 24 36 36 33 29 23 22 25 25 25
Wind_Direction
264 268 270 270 275 276 280 278 277 278 283 290 282 278 290 302 294 293 293 293 293 293 292 292 293 293 294 298 299 298 297 298 298 299 300 299 297 296
272 275 279 285 281 282 287 279 278 276 289 289 281 282 299 299 298 297 297 294 292 291 292 292 292 292 295 297 299 298 297 297 298 301 301 299 297 297
278 278 281 283 280 289 290 287 269 283 286 300 293 286 296 297 299 297 295 293 292 291 291 291 289 291 292 294 297 296 296 296 298 301 300 298 297 297
283 278 271 273 288 283 290 294 278 287 289 290 291 291 296 296 295 294 292 291 292 291 290 290 291 291 291 295 296 296 295 297 298 299 299 299 298 298
276 288 282 288 285 284 283 282 283 281 282 285 287 290 291 290 291 290 290 290 290 291 291 291 291 292 293 296 295 294 295 297 297 298 298 298 297 297
287 284 283 282 281 280 279 279 279 279 280 282 285 288 286 288 288 288 288 289 291 291 292 293 292 293 294 292 293 293 295 295 296 297 297 297 297 297
284 279 279 277 278 278 277 278 278 281 279 284 285 284 284 286 286 287 289 290 292 292 292 293 294 293 292 292 294 295 295 295 297 297 297 297 297 297
281 279 278 279 280 280 280 280 281 282 282 283 284 285 285 286 287 289 288 288 291 294 294 294 293 291 292 293 295 295 295 296 297 297 297 297 297 298
280 281 280 281 281 282 282 282 282 283 284 285 286 286 287 287 287 291 293 295 296 296 296 295 293 293 293 294 294 295 296 295 296 296 297 297 299 302
278 278 278 280 282 282 282 282 283 284 286 286 286 286 286 288 292 294 295 296 295 295 296 295 295 294 295 296 295 295 295 295 295 296 297 299 303 307
279 280 281 282 284 283 282 282 284 287 287 288 288 289 289 290 291 296 298 296 296 295 295 295 294 295 296 297 296 296 294 295 296 297 299 302 307 306
281 281 281 282 284 285 286 286 288 289 289 290 291 290 291 290 293 297 296 296 296 295 295 296 296 295 297 297 295 295 295 295 296 299 303 307 305 302
283 285 286 286 286 287 288 290 291 289 289 289 291 291 292 295 296 295 295 295 296 296 296 296 296 295 296 296 295 294 295 296 299 303 305 302 300 298
287 287 285 286 288 290 290 289 287 287 288 290 292 293 293 294 295 295 296 297 297 297 296 295 295 295 294 295 294 294 296 301 302 302 300 300 297 291
286 284 283 286 290 292 292 291 292 293 293 294 295 295 295 295 296 296 296 296 296 296 295 295 294 292 292 292 293 298 300 298 299 298 299 298 289 278
283 283 283 288 292 293 293 293 294 294 294 294 294 295 295 296 296 296 295 295 295 294 294 292 292 293 295 296 297 298 296 296 295 296 294 288 277 263
287 290 291 291 292 293 294 295 296 296 295 295 295 295 295 295 294 294 293 293 292 291 291 291 292 293 294 294 295 297 295 294 292 288 283 271 257 243
289 291 292 292 291 292 294 296 297 296 296 295 295 295 294 294 294 293 292 291 291 290 291 293 293 293 293 294 293 292 290 288 282 274 263 249 241 234
291 291 291 293 294 296 298 298 297 297 296 296 295 295 295 294 293 292 291 291 292 293 292 291 290 288 288 289 288 286 283 277 263 252 248 231 236 239
292 293 295 296 296 297 297 297 297 297 297 297 296 296 295 294 294 294 294 294 293 291 290 289 288 286 286 285 283 275 268 252 231 234 233 228 238 250
294 295 296 296 296 297 298 298 298 297 297 297 297 296 296 297 297 295 294 293 293 291 289 286 284 283 282 280 272 258 239 210 214 222 227 235 243 259
295 296 296 297 298 299 299 299 299 299 299 299 300 300 299 299 298 297 295 293 291 290 288 285 281 278 274 267 249 224 194 196 209 219 227 243 256 267
297 298 299 300 300 300 300 300 301 302 303 303 303 302 301 300 301 299 298 296 293 290 286 281 275 269 259 239 210 185 187 200 206 226 237 241 256 267
Height
5735 5734 5734 5735 5732 5728 5726 5724 5721 5719 5719 5716 5713 5709 5707 5705 5701 5698 5693 5690 5685 5681 5678 5674 5669 5664 5659 5654 5649 5643 5637 5631 5625 5619 5612 5604 5597 5590
5728 5728 5727 5725 5722 5719 5717 5714 5711 5708 5706 5705 5701 5699 5694 5691 5687 5684 5679 5674 5671 5667 5663 5658 5653 5648 5643 5638 5632 5627 5621 5614 5607 5600 5592 5584 5576 5569
5721 5719 5715 5715 5714 5709 5707 5700 5701 5698 5696 5693 5689 5687 5683 5678 5674 5670 5665 5661 5657 5653 5647 5642 5637 5632 5626 5621 5615 5609 5603 5596 5589 5581 5573 5565 5556 5549
5710 5708 5707 5704 5704 5700 5697 5693 5692 5690 5687 5683 5679 5675 5669 5664 5660 5655 5650 5646 5641 5636 5631 5626 5621 5615 5609 5603 5597 5590 5583 5576 5569 5561 5553 5545 5536 5529
5701 5699 5697 5694 5693 5690 5689 5686 5684 5681 5677 5673 5667 5662 5656 5651 5645 5640 5635 5630 5625 5619 5614 5608 5603 5597 5591 5584 5577 5570 5563 5555 5548 5540 5532 5525 5516 5508
5692 5689 5688 5686 5683 5681 5678 5675 5672 5668 5664 5659 5654 5649 5643 5636 5630 5624 5620 5613 5607 5602 5597 5591 5584 5578 5572 5564 5555 5548 5541 5534 5527 5520 5512 5504 5496 5488
5682 5680 5678 5676 5672 5669 5665 5662 5658 5654 5648 5644 5640 5635 5628 5621 5617 5610 5605 5598 5592 5586 5579 5573 5567 5560 5552 5545 5536 5527 5519 5511 5505 5498 5490 5482 5475 5467
5672 5669 5666 5663 5659 5655 5652 5648 5644 5639 5634 5630 5624 5618 5613 5608 5601 5595 5588 5580 5575 5568 5561 5554 5545 5538 5530 5522 5514 5505 5497 5491 5483 5476 5468 5461 5453 5445
5660 5657 5653 5649 5646 5642 5638 5633 5628 5624 5619 5615 5610 5604 5597 5591 5584 5576 5569 5563 5555 5547 5542 5536 5524 5518 5510 5501 5493 5484 5475 5468 5462 5454 5446 5439 5431 5421
5648 5644 5641 5636 5631 5627 5623 5618 5614 5609 5605 5599 5593 5586 5580 5573 5566 5558 5551 5543 5535 5527 5517 5512 5502 5497 5489 5482 5471 5463 5454 5446 5440 5434 5425 5417 5408 5398
5635 5631 5627 5622 5619 5614 5609 5604 5599 5593 5587 5581 5575 5568 5561 5553 5546 5538 5530 5520 5514 5504 5495 5489 5479 5472 5470 5460 5449 5441 5432 5425 5414 5409 5404 5394 5383 5374
5620 5616 5612 5607 5602 5597 5591 5586 5580 5575 5568 5562 5555 5548 5540 5533 5525 5517 5506 5497 5489 5484 5469 5467 5457 5442 5449 5440 5429 5416 5406 5400 5394 5388 5380 5370 5361 5353
5604 5599 5594 5589 5583 5578 5573 5567 5561 5555 5549 5541 5534 5527 5519 5512 5503 5494 5484 5474 5466 5458 5446 5438 5434 5423 5412 5418 5410 5396 5385 5376 5370 5363 5356 5347 5340 5335
5586 5582 5577 5571 5565 5560 5554 5547 5541 5534 5527 5520 5512 5503 5495 5488 5479 5470 5460 5450 5440 5432 5423 5410 5407 5397 5389 5386 5383 5376 5364 5353 5345 5339 5334 5330 5322 5317
5570 5564 5558 5552 5546 5541 5534 5527 5519 5512 5504 5496 5488 5480 5471 5463 5454 5445 5435 5425 5415 5404 5394 5386 5377 5371 5363 5360 5357 5353 5342 5334 5325 5320 5315 5311 5308 5303
5552 5546 5539 5533 5526 5519 5513 5506 5498 5489 5481 5473 5465 5456 5447 5438 5428 5418 5410 5399 5389 5378 5365 5357 5349 5341 5338 5334 5330 5331 5320 5312 5307 5302 5299 5295 5293 5292
5532 5525 5519 5512 5505 5497 5490 5483 5476 5468 5460 5451 5441 5431 5421 5411 5401 5390 5379 5371 5361 5351 5339 5328 5320 5314 5309 5305 5304 5301 5300 5294 5289 5285 5283 5282 5281 5283
5512 5506 5500 5492 5484 5477 5469 5462 5454 5445 5436 5425 5415 5404 5394 5382 5371 5360 5347 5337 5329 5320 5311 5301 5294 5287 5283 5285 5278 5282 5278 5275 5273 5271 5271 5272 5274 5276
5492 5486 5479 5472 5463 5455 5447 5438 5428 5418 5408 5397 5386 5373 5361 5348 5336 5324 5312 5302 5294 5286 5279 5271 5263 5258 5258 5263 5263 5255 5260 5259 5258 5260 5262 5265 5267 5269
5472 5466 5458 5450 5441 5432 5422 5412 5401 5390 5378 5366 5353 5339 5326 5314 5301 5289 5278 5268 5260 5253 5248 5242 5236 5232 5233 5237 5243 5240 5240 5244 5248 5252 5255 5258 5260 5263
5452 5444 5436 5427 5417 5408 5397 5385 5373 5360 5346 5332 5318 5304 5290 5277 5266 5254 5244 5234 5226 5220 5217 5212 5209 5207 5209 5214 5220 5222 5226 5232 5240 5244 5248 5251 5253 5255
5430 5421 5412 5403 5393 5382 5369 5355 5341 5327 5313 5298 5284 5270 5257 5244 5233 5223 5213 5204 5196 5191 5188 5186 5185 5185 5189 5195 5202 5208 5217 5225 5231 5236 5241 5244 5246 5247
5408 5397 5387 5376 5364 5351 5338 5324 5309 5295 5280 5266 5252 5239 5227 5216 5204 5194 5186 5178 5173 5170 5167 5167 5167 5170 5174 5181 5189 5199 5209 5217 5224 5230 5234 5237 5239 5240